Upgrade to Hard Mode — (Run) Bloodstained: Ritual of the Night
Total: $10,347.76
Goal: $10,000.00

Description
Upgrade the difficulty of the Bloodstained: Ritual of the Night run to Hard Mode. This sets the player's maximum level to 1, and makes the boss fights much harder.
NameAscDsc Time ReceivedAscDsc AmountAscDsc
(Anonymous) 2024-01-16T21:32:24.046927-05:00 $25.00
(Anonymous) 2024-01-16T10:57:33.455055-05:00 $250.00
(Anonymous) 2024-01-16T10:57:20.732668-05:00 $100.00
Catred 2024-01-16T10:56:39.159346-05:00 $20.00
ChasML 2024-01-16T10:56:32.684467-05:00 $5.00
Dehydrated Gannondorf 2024-01-16T10:55:32.261317-05:00 $50.00
Sokol2044 2024-01-16T10:55:26.522520-05:00 $40.00
(Anonymous) 2024-01-16T10:54:05.828122-05:00 $50.00
NeonKodiak 2024-01-16T10:52:37.544144-05:00 $50.00
myass 2024-01-16T10:51:03.297295-05:00 $50.00
daverboy 2024-01-16T10:50:40.754256-05:00 $50.00
Yarn 2024-01-16T10:50:04.957736-05:00 $50.00
Kineticka 2024-01-16T10:49:33.281582-05:00 $50.00
TruG33K 2024-01-16T10:49:22.985936-05:00 $50.00
Snowy_Rev 2024-01-16T10:49:17.060998-05:00 $25.00
SushiElemental 2024-01-16T10:48:06.550675-05:00 $25.00
Justin 2024-01-16T10:48:03.466409-05:00 $50.00
(Anonymous) 2024-01-16T10:47:57.414345-05:00 $10.00
Tako 2024-01-16T10:46:20.844549-05:00 $50.00
willi 2024-01-16T10:46:06.346343-05:00 $25.00
Banquo 2024-01-16T10:45:41.451873-05:00 $25.00
Skkruf 2024-01-16T10:45:35.127409-05:00 $25.00
AGINSB 2024-01-16T10:45:26.594145-05:00 $50.00
(Anonymous) 2024-01-16T10:45:25.322062-05:00 $50.00
Eric 2024-01-16T10:45:23.491402-05:00 $25.00
(Anonymous) 2024-01-16T10:44:42.955825-05:00 $100.00
Crucio 2024-01-16T10:44:42.741836-05:00 $50.00
Patrick & Ada 2024-01-16T10:44:15.619425-05:00 $50.00
Onehandstan 2024-01-16T10:43:57.950429-05:00 $25.00
(Anonymous) 2024-01-16T10:43:51.587074-05:00 $25.00
ItsNeo 2024-01-16T10:43:50.693117-05:00 $25.00
MiActualDog 2024-01-16T10:43:08.789818-05:00 $50.00
niartyzarC 2024-01-16T10:43:06.222454-05:00 $50.00
Mr. Popo 2024-01-16T10:42:57.815872-05:00 $50.00
Hypest Iveysaur 2024-01-16T10:42:57.399520-05:00 $50.00
No comment 2024-01-16T10:42:36.980451-05:00 $50.00
(Anonymous) 2024-01-16T10:42:35.333395-05:00 $50.00
Able065 2024-01-16T10:41:56.987506-05:00 $250.00
Staccato Sharp 2024-01-16T10:41:47.781785-05:00 $50.00
Philly G 2024-01-16T10:41:31.227196-05:00 $50.00
Chase 2024-01-16T10:41:30.294070-05:00 $50.00
Omniterasu 2024-01-16T10:41:27.978876-05:00 $50.00
cvpcs 2024-01-16T10:41:16.221981-05:00 $50.00
dizz 2024-01-16T10:41:14.068452-05:00 $25.00
ElMicha 2024-01-16T10:41:00.409410-05:00 $25.00
Bat 2024-01-16T10:40:54.914854-05:00 $50.00
JGhigs 2024-01-16T10:40:48.470992-05:00 $50.00
thedegeneric 2024-01-16T10:40:17.546534-05:00 $25.00
(Anonymous) 2024-01-16T10:40:09.438588-05:00 $50.00
Sans Seraph 2024-01-16T10:40:00.887779-05:00 $50.00

|< >|

Back to Bid Index

Back to Main Index

Running on Django with Python
Python code by UraniumAnchor, SMK, and jdeng
CSS by Cool Matty